Flag for Japan Weather past 2 weeks in Kawasaki, Japan

Now
37 °F

Clear.


Feels Like: 30 °F
Forecast: 39 / 47 °F
Wind: 12 mph from Northwest

Location: Tokyo International Airport

Current Time: Dec 19, 2014 at 5:15:25 AM

Latest Report: Dec 19, 2014 at 4:30 AM


Visibility: 10 mi

Pressure: 30.33 "Hg

Humidity: 45%

Dew point: 18 °F

Location of KawasakiLocation

Historic Weather in Kawasaki — Graph

°F

Kawasaki temperature yesterday

Maximum temperature yesterday: 48 °F (at 1:30 PM)
Minimum temperature yesterday: 34 °F (at 2:00 AM)
Average temperature yesterday: 40 °F

Past Weeks' High & Low Weather Summary

 TemperatureHumidityPressure
High63 °F (Dec 11, 1:30 PM)94% (Dec 4, 6:00 PM)30.39 "Hg (Dec 4, 6:00 PM)
Low34 °F (Dec 18, 2:00 AM)18% (Dec 18, 2:00 PM)29.24 "Hg (Dec 16, 7:30 PM)
Average46 °F53%29.93 "Hg
* Reported Dec 4 4:00 AM — Dec 19 4:00 AM, Kawasaki, Weather by CustomWeather, © 2014

Note: Actual official high and low records may vary slightly from our data, if they occured in-between our weather recording intervals... More about our weather records

Advertising

Kawasaki weather history for previous 24 hours

 ConditionsComfort  
Time TempWeatherWind HumidityBarometerVisibility
4:00 AM
Dec 19
36 °FClear.7 mph44%30.30 "Hg10 mi
3:30 AM37 °FClear.8 mph45%30.30 "Hg10 mi
3:00 AM37 °FClear.9 mph45%30.30 "Hg10 mi
2:30 AM39 °FClear.13 mph39%30.30 "Hg10 mi
2:00 AM39 °FClear.10 mph39%30.30 "Hg10 mi
1:30 AM37 °FClear.8 mph45%30.27 "Hg10 mi
1:00 AM39 °FClear.10 mph39%30.27 "Hg10 mi
12:30 AM41 °FClear.14 mph33%30.24 "Hg10 mi
12:00 AM41 °FClear.17 mph36%30.24 "Hg10 mi
11:30 PM
Dec 18
41 °FClear.18 mph39%30.24 "Hg10 mi
11:00 PM39 °FClear.12 mph45%30.21 "Hg10 mi
10:30 PM39 °FClear.14 mph45%30.21 "Hg10 mi
10:00 PM41 °FPassing clouds.9 mph39%30.21 "HgN/A
9:30 PM41 °FClear.9 mph39%30.18 "Hg10 mi
9:00 PM41 °FPassing clouds.7 mph39%30.18 "HgN/A
8:30 PM41 °FClear.8 mph39%30.15 "Hg10 mi
8:00 PM41 °FClear.12 mph39%30.15 "Hg10 mi
7:30 PM41 °FClear.13 mph36%30.12 "Hg10 mi
7:00 PM41 °FClear.12 mph36%30.09 "Hg10 mi
6:30 PM43 °FClear.12 mph31%30.09 "Hg10 mi
6:00 PM43 °FPassing clouds.13 mph29%30.07 "HgN/A
5:30 PM43 °FPassing clouds.13 mph26%30.07 "HgN/A
5:00 PM45 °FPassing clouds.10 mph25%30.04 "HgN/A
4:30 PM45 °FPassing clouds.17 mph25%29.98 "HgN/A
4:00 PM45 °FPassing clouds.25 mph23%29.98 "HgN/A
3:47 PM46 °FPassing clouds.22 mph20%29.98 "HgN/A
3:30 PM46 °FPassing clouds.20 mph23%29.95 "HgN/A
3:00 PM46 °FPassing clouds.23 mph18%29.95 "HgN/A
2:30 PM46 °FPassing clouds.20 mph18%29.92 "HgN/A
2:00 PM48 °FPassing clouds.21 mph18%29.92 "HgN/A
1:30 PM48 °FPassing clouds.22 mph20%29.89 "HgN/A
12:30 PM46 °FPassing clouds.18 mph20%29.89 "HgN/A
11:30 AM45 °FPassing clouds.20 mph21%29.89 "HgN/A
11:00 AM45 °FPassing clouds.17 mph23%29.89 "HgN/A
10:30 AM43 °FPassing clouds.12 mph24%29.92 "HgN/A
10:00 AM43 °FPassing clouds.6 mph26%29.92 "HgN/A
9:30 AM43 °FPassing clouds.8 mph29%29.89 "HgN/A
9:00 AM41 °FPassing clouds.2 mph28%29.89 "HgN/A
8:30 AM39 °FPassing clouds.8 mph36%29.89 "HgN/A
8:00 AM39 °FPassing clouds.9 mph36%29.86 "HgN/A
7:30 AM37 °FPassing clouds.7 mph41%29.86 "HgN/A
7:00 AM36 °FPassing clouds.6 mph44%29.83 "HgN/A
6:30 AM34 °FPassing clouds.6 mph44%29.80 "HgN/A
6:00 AM36 °FPassing clouds.5 mph41%29.77 "HgN/A
5:30 AM36 °FPassing clouds.1 mph41%29.77 "HgN/A
5:00 AM36 °FPassing clouds.5 mph41%29.74 "HgN/A
Weather by CustomWeather, © 2014

See weather overviewHow to use our weather pages